Tracking 19827 objects as of 22-Aug-2019
HD Live streaming from Space Station
objects crossing your sky now

LINGQIAO VIDEO A

Track LINGQIAO VIDEO A now!
10-day predictions


NORAD ID: 40959
Int'l Code: 2015-057B
Perigee: 644.5 km
Apogee: 671.2 km
Inclination: 97.9 °
Period: 97.7 minutes
Semi major axis: 7028 km
RCS: Unknown
Launch date: October 7, 2015
Source: People's Republic of China (PRC)
Launch site: Jiuquan Satellite Launch Center, China (JSC)

LINGQIAO VIDEO A is a Chinese satellite designed for video capture.
aabbcc
Your satellite tracking list
Your tracking list is empty




NASA's NSSDC Master Catalog

Two Line Element Set (TLE):
1 40959U 15057B   19233.87489090  .00000008  00000-0  87929-5 0  9996
2 40959  97.8955 301.6917 0018983  39.8627 320.3963 14.73260677208282
Source of the keplerian elements: AFSPC